{"data":{"norad_id":67650,"intl_designator":"2026-022C","name":"STARLINK-36703","alt_names":[],"object_type":"PAYLOAD","status":"ACTIVE","operator":null,"country":"US","launch_date":"2026-02-02","launch_site_code":"AFWTR","launch_vehicle":null,"mission":null,"orbit_class":"UNKNOWN","rcs_meters":null,"size_class":null,"mass_kg":null,"dimensions":null,"purposes":["comms"],"wikipedia_slug":null,"has_3d_model":false,"image_url":null,"decayed_at":null,"tle_current":{"epoch":"2026-09-19T21:20:52.965888Z","epoch_age_seconds":121627,"freshness":"FRESH","line1":"1 67650U 26022C   26262.88950192  .00015911  00000+0  49375-3 0  9993","line2":"2 67650  97.2859 294.4626 0000878 104.4097 255.7244 15.33469906 35336","mean_motion":15.33469906,"eccentricity":8.78e-5,"inclination_deg":97.2859,"raan_deg":294.4626,"arg_perigee_deg":104.4097,"mean_anomaly_deg":255.7244,"bstar":0.00049375,"rev_number":3533,"period_min":93.904679470117,"perigee_km":464.86820413476,"apogee_km":466.06994136114,"semimajor_km":6843.6060727479,"source":"CELESTRAK","updated_at":"2026-09-20T09:00:43.618116Z"}}}